Wetterdaten: Woche 08.12.14 - 14.12.14 (KW50)
Datum Zeit Temp. A. Feuchte A. Luftdruck Regen Wind Richtung Sonnenschein ET UV Solar Taupunkt Windchill Windben Empfang
08.12.2014 00:00 2,7 C 84 % 1020,2 hPa 0,0 l/m 0,4 km/h (0 Bft) SW 0,00 h 0,000 mm 0,0 UV-I 0 W/m 0,3 C 2,7 C 4,0 km/h (1 Bft) 0,00 %
08.12.2014 01:00 2,7 C 85 % 1020,0 hPa 0,0 l/m 2,6 km/h (1 Bft) W-SW 0,00 h 0,000 mm 0,0 UV-I 0 W/m 0,4 C 2,7 C 4,9 km/h (1 Bft) 0,00 %
08.12.2014 02:00 2,8 C 84 % 1019,8 hPa 0,0 l/m 0,6 km/h (0 Bft) W-SW 0,00 h 0,000 mm 0,0 UV-I 0 W/m 0,4 C 2,8 C 2,0 km/h (1 Bft) 0,00 %
08.12.2014 03:00 3,0 C 83 % 1019,6 hPa 0,0 l/m 0,4 km/h (0 Bft) W-SW 0,00 h 0,000 mm 0,0 UV-I 0 W/m 0,4 C 3,0 C 1,0 km/h (0 Bft) 0,00 %
08.12.2014 04:00 3,0 C 83 % 1019,6 hPa 0,0 l/m 1,1 km/h (1 Bft) W-SW 0,00 h 0,000 mm 0,0 UV-I 0 W/m 0,3 C 3,0 C 3,0 km/h (1 Bft) 0,00 %
08.12.2014 05:00 2,4 C 82 % 1019,6 hPa 0,0 l/m 0,1 km/h (0 Bft) N 0,00 h 0,000 mm 0,0 UV-I 0 W/m -0,4 C 2,4 C 1,0 km/h (0 Bft) 0,00 %
08.12.2014 06:00 2,1 C 80 % 1019,7 hPa 0,0 l/m 0,0 km/h (0 Bft) SW 0,00 h 0,000 mm 0,0 UV-I 0 W/m -1,0 C 2,1 C 0,0 km/h (0 Bft) 0,00 %
08.12.2014 07:00 2,4 C 81 % 1019,8 hPa 0,0 l/m 1,1 km/h (1 Bft) N 0,00 h 0,000 mm 0,0 UV-I 0 W/m -0,5 C 2,4 C 3,0 km/h (1 Bft) 0,00 %
08.12.2014 08:00 2,6 C 83 % 1020,3 hPa 0,6 l/m 1,3 km/h (1 Bft) W-SW 0,00 h 0,000 mm 0,0 UV-I 10 W/m 0,0 C 2,6 C 3,0 km/h (1 Bft) 0,00 %
08.12.2014 09:00 2,8 C 83 % 1020,7 hPa 0,3 l/m 1,4 km/h (1 Bft) W-SW 0,00 h 0,000 mm 1,0 UV-I 35 W/m 0,2 C 2,8 C 4,0 km/h (1 Bft) 0,00 %
08.12.2014 10:00 2,8 C 83 % 1020,9 hPa 0,0 l/m 2,0 km/h (1 Bft) W-SW 0,00 h 0,000 mm 1,0 UV-I 29 W/m 0,2 C 2,8 C 5,0 km/h (1 Bft) 0,00 %
08.12.2014 11:00 3,1 C 82 % 1020,7 hPa 0,0 l/m 0,8 km/h (0 Bft) W-SW 0,00 h 0,000 mm 1,0 UV-I 65 W/m 0,3 C 3,1 C 4,0 km/h (1 Bft) 0,00 %
08.12.2014 12:00 3,3 C 82 % 1020,1 hPa 0,0 l/m 0,3 km/h (0 Bft) SW 0,00 h 0,000 mm 1,0 UV-I 78 W/m 0,5 C 3,3 C 1,0 km/h (0 Bft) 0,00 %
08.12.2014 13:00 3,5 C 80 % 1019,6 hPa 0,0 l/m 0,9 km/h (0 Bft) N 0,00 h 0,000 mm 1,0 UV-I 95 W/m 0,3 C 3,5 C 2,0 km/h (1 Bft) 0,00 %
08.12.2014 14:00 3,2 C 81 % 1019,3 hPa 0,0 l/m 0,1 km/h (0 Bft) N 0,00 h 0,000 mm 1,0 UV-I 45 W/m 0,2 C 3,2 C 1,0 km/h (0 Bft) 0,00 %
08.12.2014 15:00 3,0 C 81 % 1019,2 hPa 0,0 l/m 0,0 km/h (0 Bft) N 0,00 h 0,000 mm 0,0 UV-I 13 W/m 0,1 C 3,0 C 0,0 km/h (0 Bft) 0,00 %
08.12.2014 16:00 2,6 C 82 % 1019,3 hPa 0,0 l/m 0,0 km/h (0 Bft) N 0,00 h 0,000 mm 0,0 UV-I 0 W/m -0,3 C 2,6 C 0,0 km/h (0 Bft) 0,00 %
08.12.2014 17:00 2,3 C 80 % 1019,2 hPa 0,0 l/m 0,0 km/h (0 Bft) N 0,00 h 0,000 mm 0,0 UV-I 0 W/m -0,9 C 2,3 C 0,0 km/h (0 Bft) 0,00 %
08.12.2014 18:00 1,9 C 80 % 1019,3 hPa 0,0 l/m 0,0 km/h (0 Bft) N 0,00 h 0,000 mm 0,0 UV-I 0 W/m -1,2 C 1,9 C 0,0 km/h (0 Bft) 0,00 %
08.12.2014 19:00 0,9 C 81 % 1019,5 hPa 0,0 l/m 0,0 km/h (0 Bft) N 0,00 h 0,000 mm 0,0 UV-I 0 W/m -2,0 C 0,9 C 0,0 km/h (0 Bft) 0,00 %
08.12.2014 20:00 0,8 C 82 % 1019,5 hPa 0,0 l/m 0,0 km/h (0 Bft) N 0,00 h 0,000 mm 0,0 UV-I 0 W/m -1,9 C 0,8 C 0,0 km/h (0 Bft) 0,00 %
08.12.2014 21:00 1,0 C 82 % 1019,4 hPa 0,0 l/m 0,0 km/h (0 Bft) N 0,00 h 0,000 mm 0,0 UV-I 0 W/m -1,7 C 1,0 C 0,0 km/h (0 Bft) 0,00 %
08.12.2014 22:00 1,3 C 82 % 1019,6 hPa 0,0 l/m 0,0 km/h (0 Bft) N 0,00 h 0,000 mm 0,0 UV-I 0 W/m -1,5 C 1,3 C 0,0 km/h (0 Bft) 0,00 %
08.12.2014 23:00 1,4 C 82 % 1019,4 hPa 0,0 l/m 0,0 km/h (0 Bft) N 0,00 h 0,000 mm 0,0 UV-I 0 W/m -1,3 C 1,4 C 0,0 km/h (0 Bft) 0,00 %
09.12.2014 00:00 1,5 C 82 % 1019,7 hPa 0,0 l/m 0,0 km/h (0 Bft) N 0,00 h 0,000 mm 0,0 UV-I 0 W/m -1,2 C 1,5 C 0,0 km/h (0 Bft) 0,00 %
09.12.2014 01:00 1,5 C 82 % 1019,8 hPa 0,3 l/m 0,0 km/h (0 Bft) N 0,00 h 0,000 mm 0,0 UV-I 0 W/m -1,2 C 1,5 C 0,0 km/h (0 Bft) 0,00 %
09.12.2014 02:00 1,6 C 82 % 1020,1 hPa 0,0 l/m 0,0 km/h (0 Bft) N 0,00 h 0,000 mm 0,0 UV-I 0 W/m -1,1 C 1,6 C 0,0 km/h (0 Bft) 0,00 %
09.12.2014 03:00 1,6 C 82 % 1020,2 hPa 0,0 l/m 0,0 km/h (0 Bft) N 0,00 h 0,000 mm 0,0 UV-I 0 W/m -1,2 C 1,6 C 0,0 km/h (0 Bft) 0,00 %
09.12.2014 04:00 1,3 C 83 % 1020,6 hPa 0,0 l/m 0,0 km/h (0 Bft) N 0,00 h 0,000 mm 0,0 UV-I 0 W/m -1,2 C 1,3 C 0,0 km/h (0 Bft) 0,00 %
09.12.2014 05:00 1,3 C 83 % 1021,4 hPa 0,0 l/m 0,0 km/h (0 Bft) N 0,00 h 0,000 mm 0,0 UV-I 0 W/m -1,3 C 1,3 C 0,0 km/h (0 Bft) 0,00 %
09.12.2014 06:00 1,2 C 83 % 1022,2 hPa 0,0 l/m 0,0 km/h (0 Bft) N 0,00 h 0,000 mm 0,0 UV-I 0 W/m -1,4 C 1,2 C 0,0 km/h (0 Bft) 0,00 %
09.12.2014 07:00 0,8 C 82 % 1023,4 hPa 0,0 l/m 0,0 km/h (0 Bft) N 0,00 h 0,000 mm 0,0 UV-I 0 W/m -1,9 C 0,8 C 0,0 km/h (0 Bft) 0,00 %
09.12.2014 08:00 0,6 C 82 % 1024,6 hPa 0,0 l/m 0,0 km/h (0 Bft) N 0,00 h 0,000 mm 1,0 UV-I 31 W/m -2,1 C 0,6 C 0,0 km/h (0 Bft) 0,00 %
09.12.2014 09:00 1,2 C 79 % 1025,7 hPa 0,0 l/m 0,0 km/h (0 Bft) N 0,00 h 0,000 mm 1,0 UV-I 61 W/m -2,0 C 1,2 C 0,0 km/h (0 Bft) 0,00 %
09.12.2014 10:00 2,8 C 74 % 1026,1 hPa 0,0 l/m 0,0 km/h (0 Bft) N 0,00 h 0,000 mm 1,0 UV-I 89 W/m -1,3 C 2,8 C 0,0 km/h (0 Bft) 0,00 %
09.12.2014 11:00 2,5 C 71 % 1026,5 hPa 0,0 l/m 0,0 km/h (0 Bft) N 0,00 h 0,000 mm 1,0 UV-I 87 W/m -2,2 C 2,5 C 0,0 km/h (0 Bft) 0,00 %
09.12.2014 12:00 3,1 C 69 % 1026,7 hPa 0,0 l/m 0,0 km/h (0 Bft) N 0,00 h 0,000 mm 1,0 UV-I 117 W/m -2,2 C 3,1 C 0,0 km/h (0 Bft) 0,00 %
09.12.2014 13:00 3,0 C 70 % 1027,1 hPa 0,0 l/m 0,0 km/h (0 Bft) N 0,00 h 0,000 mm 1,0 UV-I 95 W/m -2,0 C 3,0 C 0,0 km/h (0 Bft) 0,00 %
09.12.2014 14:00 2,8 C 73 % 1027,7 hPa 0,0 l/m 0,0 km/h (0 Bft) N 0,00 h 0,000 mm 1,0 UV-I 58 W/m -1,5 C 2,8 C 0,0 km/h (0 Bft) 0,00 %
09.12.2014 15:00 1,9 C 72 % 1028,6 hPa 0,0 l/m 0,0 km/h (0 Bft) N 0,00 h 0,000 mm 0,0 UV-I 19 W/m -2,6 C 1,9 C 0,0 km/h (0 Bft) 0,00 %
09.12.2014 16:00 1,1 C 75 % 1029,5 hPa 0,0 l/m 0,0 km/h (0 Bft) N 0,00 h 0,000 mm 0,0 UV-I 0 W/m -2,9 C 1,1 C 0,0 km/h (0 Bft) 0,00 %
09.12.2014 17:00 0,3 C 79 % 1030,2 hPa 0,0 l/m 0,2 km/h (0 Bft) N 0,00 h 0,000 mm 0,0 UV-I 0 W/m -3,0 C 0,3 C 1,0 km/h (0 Bft) 0,00 %
09.12.2014 18:00 -0,1 C 80 % 1030,9 hPa 0,0 l/m 0,1 km/h (0 Bft) N 0,00 h 0,000 mm 0,0 UV-I 0 W/m -3,1 C -0,1 C 1,0 km/h (0 Bft) 0,00 %
09.12.2014 19:00 -0,7 C 81 % 1031,2 hPa 0,0 l/m 0,0 km/h (0 Bft) N 0,00 h 0,000 mm 0,0 UV-I 0 W/m -3,5 C -0,7 C 0,0 km/h (0 Bft) 0,00 %
09.12.2014 20:00 -1,0 C 81 % 1031,4 hPa 0,0 l/m 0,0 km/h (0 Bft) N 0,00 h 0,000 mm 0,0 UV-I 0 W/m -3,8 C -1,0 C 0,0 km/h (0 Bft) 0,00 %
09.12.2014 21:00 -1,9 C 83 % 1031,7 hPa 0,0 l/m 0,0 km/h (0 Bft) N 0,00 h 0,000 mm 0,0 UV-I 0 W/m -4,5 C -1,9 C 0,0 km/h (0 Bft) 0,00 %
09.12.2014 22:00 -2,4 C 81 % 1032,0 hPa 0,0 l/m 0,0 km/h (0 Bft) N 0,00 h 0,000 mm 0,0 UV-I 0 W/m -5,2 C -2,4 C 0,0 km/h (0 Bft) 0,00 %
09.12.2014 23:00 -1,9 C 84 % 1032,1 hPa 0,0 l/m 0,0 km/h (0 Bft) N 0,00 h 0,000 mm 0,0 UV-I 0 W/m -4,3 C -1,9 C 0,0 km/h (0 Bft) 0,00 %
10.12.2014 00:00 -1,7 C 83 % 1031,8 hPa 0,0 l/m 0,0 km/h (0 Bft) N 0,00 h 0,000 mm 0,0 UV-I 0 W/m -4,1 C -1,7 C 0,0 km/h (0 Bft) 0,00 %
10.12.2014 01:00 -1,0 C 82 % 1031,1 hPa 0,0 l/m 0,0 km/h (0 Bft) N 0,00 h 0,000 mm 0,0 UV-I 0 W/m -3,7 C -1,0 C 0,0 km/h (0 Bft) 0,00 %
10.12.2014 02:00 -1,1 C 82 % 1031,0 hPa 0,0 l/m 0,0 km/h (0 Bft) N 0,00 h 0,000 mm 0,0 UV-I 0 W/m -3,9 C -1,1 C 0,0 km/h (0 Bft) 0,00 %
10.12.2014 03:00 -1,2 C 82 % 1030,2 hPa 0,0 l/m 0,0 km/h (0 Bft) N 0,00 h 0,000 mm 0,0 UV-I 0 W/m -3,9 C -1,2 C 0,0 km/h (0 Bft) 0,00 %
10.12.2014 04:00 -1,0 C 82 % 1029,7 hPa 0,0 l/m 0,0 km/h (0 Bft) N 0,00 h 0,000 mm 0,0 UV-I 0 W/m -3,8 C -1,0 C 0,0 km/h (0 Bft) 0,00 %
10.12.2014 05:00 -1,2 C 81 % 1029,4 hPa 0,0 l/m 0,0 km/h (0 Bft) N 0,00 h 0,000 mm 0,0 UV-I 0 W/m -4,0 C -1,2 C 0,0 km/h (0 Bft) 0,00 %
10.12.2014 06:00 -1,5 C 81 % 1029,3 hPa 0,0 l/m 0,1 km/h (0 Bft) N 0,00 h 0,000 mm 0,0 UV-I 0 W/m -4,3 C -1,5 C 1,0 km/h (0 Bft) 0,00 %
10.12.2014 07:00 -1,5 C 80 % 1029,2 hPa 0,0 l/m 0,1 km/h (0 Bft) N 0,00 h 0,000 mm 0,0 UV-I 0 W/m -4,4 C -1,5 C 1,0 km/h (0 Bft) 0,00 %
10.12.2014 08:00 -1,0 C 77 % 1028,9 hPa 0,0 l/m 0,1 km/h (0 Bft) N 0,00 h 0,000 mm 0,0 UV-I 18 W/m -4,4 C -1,0 C 1,0 km/h (0 Bft) 0,00 %
10.12.2014 09:00 -0,5 C 72 % 1028,8 hPa 0,0 l/m 0,0 km/h (0 Bft) W-SW 0,00 h 0,000 mm 1,0 UV-I 66 W/m -5,0 C -0,5 C 0,0 km/h (0 Bft) 0,00 %
10.12.2014 10:00 0,0 C 70 % 1027,9 hPa 0,0 l/m 1,1 km/h (0 Bft) W-SW 1,00 h 0,000 mm 1,3 UV-I 193 W/m -4,9 C 0,0 C 3,0 km/h (1 Bft) 0,00 %
10.12.2014 11:00 0,6 C 67 % 1026,8 hPa 0,0 l/m 0,3 km/h (0 Bft) N 1,00 h 0,000 mm 1,0 UV-I 225 W/m -4,9 C 0,6 C 2,0 km/h (1 Bft) 0,00 %
10.12.2014 12:00 1,0 C 65 % 1025,6 hPa 0,0 l/m 0,3 km/h (0 Bft) N 1,00 h 0,000 mm 1,0 UV-I 246 W/m -4,7 C 1,0 C 2,0 km/h (1 Bft) 0,00 %
10.12.2014 13:00 0,7 C 66 % 1024,7 hPa 0,0 l/m 0,0 km/h (0 Bft) N 0,00 h 0,000 mm 1,0 UV-I 94 W/m -4,9 C 0,7 C 0,0 km/h (0 Bft) 0,00 %
10.12.2014 14:00 0,5 C 69 % 1024,4 hPa 0,0 l/m 0,0 km/h (0 Bft) N 0,00 h 0,000 mm 1,0 UV-I 38 W/m -4,4 C 0,5 C 0,0 km/h (0 Bft) 0,00 %
10.12.2014 15:00 0,1 C 72 % 1023,6 hPa 0,0 l/m 0,0 km/h (0 Bft) N 0,00 h 0,000 mm 0,0 UV-I 9 W/m -4,3 C 0,1 C 0,0 km/h (0 Bft) 0,00 %
10.12.2014 16:00 -0,3 C 75 % 1022,9 hPa 0,0 l/m 0,0 km/h (0 Bft) N 0,00 h 0,000 mm 0,0 UV-I 0 W/m -4,2 C -0,3 C 0,0 km/h (0 Bft) 0,00 %
10.12.2014 17:00 -0,6 C 77 % 1022,4 hPa 0,0 l/m 0,2 km/h (0 Bft) N 0,00 h 0,000 mm 0,0 UV-I 0 W/m -4,2 C -0,6 C 1,0 km/h (0 Bft) 0,00 %
10.12.2014 18:00 -0,7 C 77 % 1022,1 hPa 0,0 l/m 0,0 km/h (0 Bft) N 0,00 h 0,000 mm 0,0 UV-I 0 W/m -4,3 C -0,7 C 0,0 km/h (0 Bft) 0,00 %
10.12.2014 19:00 -0,8 C 77 % 1022,2 hPa 0,0 l/m 0,0 km/h (0 Bft) N 0,00 h 0,000 mm 0,0 UV-I 0 W/m -4,3 C -0,8 C 0,0 km/h (0 Bft) 0,00 %
10.12.2014 20:00 -0,6 C 76 % 1022,1 hPa 0,0 l/m 0,0 km/h (0 Bft) N 0,00 h 0,000 mm 0,0 UV-I 0 W/m -4,4 C -0,6 C 0,0 km/h (0 Bft) 0,00 %
10.12.2014 21:00 -0,5 C 77 % 1021,8 hPa 0,0 l/m 0,0 km/h (0 Bft) N 0,00 h 0,000 mm 0,0 UV-I 0 W/m -4,0 C -0,5 C 0,0 km/h (0 Bft) 0,00 %
10.12.2014 22:00 -0,2 C 80 % 1021,5 hPa 0,0 l/m 0,0 km/h (0 Bft) N 0,00 h 0,000 mm 0,0 UV-I 0 W/m -3,3 C -0,2 C 0,0 km/h (0 Bft) 0,00 %
10.12.2014 23:00 0,1 C 80 % 1021,2 hPa 0,0 l/m 0,0 km/h (0 Bft) N 0,00 h 0,000 mm 0,0 UV-I 0 W/m -3,0 C 0,1 C 0,0 km/h (0 Bft) 0,00 %
11.12.2014 00:00 0,5 C 80 % 1020,6 hPa 0,0 l/m 0,0 km/h (0 Bft) N 0,00 h 0,000 mm 0,0 UV-I 0 W/m -2,5 C 0,5 C 0,0 km/h (0 Bft) 0,00 %
11.12.2014 01:00 0,9 C 79 % 1020,1 hPa 0,0 l/m 0,0 km/h (0 Bft) N 0,00 h 0,000 mm 0,0 UV-I 0 W/m -2,3 C 0,9 C 0,0 km/h (0 Bft) 0,00 %
11.12.2014 02:00 0,8 C 80 % 1019,7 hPa 0,6 l/m 0,0 km/h (0 Bft) N 0,00 h 0,000 mm 0,0 UV-I 0 W/m -2,2 C 0,8 C 0,0 km/h (0 Bft) 0,00 %
11.12.2014 03:00 0,8 C 81 % 1019,1 hPa 0,3 l/m 0,0 km/h (0 Bft) N 0,00 h 0,000 mm 0,0 UV-I 0 W/m -2,1 C 0,8 C 0,0 km/h (0 Bft) 0,00 %
11.12.2014 04:00 0,9 C 82 % 1018,8 hPa 0,3 l/m 0,0 km/h (0 Bft) N 0,00 h 0,000 mm 0,0 UV-I 0 W/m -1,8 C 0,9 C 0,0 km/h (0 Bft) 0,00 %
11.12.2014 05:00 1,0 C 82 % 1018,1 hPa 0,0 l/m 0,0 km/h (0 Bft) N 0,00 h 0,000 mm 0,0 UV-I 0 W/m -1,7 C 1,0 C 0,0 km/h (0 Bft) 0,00 %
11.12.2014 06:00 1,2 C 82 % 1017,7 hPa 0,3 l/m 0,0 km/h (0 Bft) N 0,00 h 0,000 mm 0,0 UV-I 0 W/m -1,5 C 1,2 C 0,0 km/h (0 Bft) 0,00 %
11.12.2014 07:00 1,2 C 82 % 1017,5 hPa 0,3 l/m 0,0 km/h (0 Bft) N 0,00 h 0,000 mm 0,0 UV-I 0 W/m -1,5 C 1,2 C 0,0 km/h (0 Bft) 0,00 %
11.12.2014 08:00 1,4 C 82 % 1017,6 hPa 0,0 l/m 0,0 km/h (0 Bft) N 0,00 h 0,000 mm 0,0 UV-I 10 W/m -1,4 C 1,4 C 0,0 km/h (0 Bft) 0,00 %
11.12.2014 09:00 3,0 C 85 % 1017,3 hPa 0,0 l/m 0,5 km/h (0 Bft) O 0,00 h 0,000 mm 0,0 UV-I 17 W/m 0,7 C 3,0 C 2,0 km/h (1 Bft) 0,00 %
11.12.2014 10:00 4,3 C 81 % 1017,1 hPa 0,0 l/m 2,1 km/h (1 Bft) S-SW 0,25 h 0,000 mm 1,0 UV-I 106 W/m 1,3 C 4,3 C 6,9 km/h (2 Bft) 0,00 %
11.12.2014 11:00 5,8 C 70 % 1016,2 hPa 0,0 l/m 4,2 km/h (1 Bft) W-SW 1,00 h 0,000 mm 1,0 UV-I 214 W/m 0,9 C 5,8 C 7,9 km/h (2 Bft) 0,00 %
11.12.2014 12:00 7,0 C 64 % 1015,5 hPa 0,0 l/m 2,5 km/h (1 Bft) O 1,00 h 0,000 mm 1,0 UV-I 207 W/m 0,6 C 7,0 C 5,0 km/h (1 Bft) 0,00 %
11.12.2014 13:00 7,4 C 62 % 1014,9 hPa 0,0 l/m 3,2 km/h (1 Bft) S 0,50 h 0,000 mm 1,0 UV-I 154 W/m 0,5 C 7,4 C 5,9 km/h (2 Bft) 0,00 %
11.12.2014 14:00 6,5 C 61 % 1014,8 hPa 0,0 l/m 2,9 km/h (1 Bft) O 0,00 h 0,000 mm 1,0 UV-I 64 W/m -0,4 C 6,5 C 6,9 km/h (2 Bft) 0,00 %
11.12.2014 15:00 5,9 C 64 % 1014,7 hPa 0,0 l/m 2,6 km/h (1 Bft) W-SW 0,00 h 0,000 mm 0,0 UV-I 27 W/m -0,5 C 5,9 C 5,9 km/h (2 Bft) 0,00 %
11.12.2014 16:00 5,4 C 64 % 1015,0 hPa 0,0 l/m 2,3 km/h (1 Bft) S-SO 0,00 h 0,000 mm 0,0 UV-I 0 W/m -0,9 C 5,4 C 5,0 km/h (1 Bft) 0,00 %
11.12.2014 17:00 5,3 C 63 % 1014,8 hPa 0,0 l/m 2,2 km/h (1 Bft) S 0,00 h 0,000 mm 0,0 UV-I 0 W/m -1,2 C 5,3 C 5,0 km/h (1 Bft) 0,00 %
11.12.2014 18:00 5,3 C 62 % 1014,6 hPa 0,0 l/m 1,1 km/h (0 Bft) SW 0,00 h 0,000 mm 0,0 UV-I 0 W/m -1,5 C 5,3 C 4,0 km/h (1 Bft) 0,00 %
11.12.2014 19:00 5,1 C 62 % 1014,8 hPa 0,0 l/m 2,0 km/h (1 Bft) NO 0,00 h 0,000 mm 0,0 UV-I 0 W/m -1,7 C 5,1 C 3,0 km/h (1 Bft) 0,00 %
11.12.2014 20:00 5,9 C 58 % 1015,1 hPa 0,0 l/m 3,2 km/h (1 Bft) O 0,00 h 0,000 mm 0,0 UV-I 0 W/m -1,8 C 5,9 C 7,9 km/h (2 Bft) 0,00 %
11.12.2014 21:00 5,8 C 59 % 1015,3 hPa 0,0 l/m 6,8 km/h (2 Bft) NO 0,00 h 0,000 mm 0,0 UV-I 0 W/m -1,6 C 4,6 C 11,9 km/h (2 Bft) 0,00 %
11.12.2014 22:00 5,6 C 60 % 1015,3 hPa 0,0 l/m 1,9 km/h (1 Bft) N 0,00 h 0,000 mm 0,0 UV-I 0 W/m -1,5 C 5,6 C 5,0 km/h (1 Bft) 0,00 %
11.12.2014 23:00 5,6 C 59 % 1015,5 hPa 0,0 l/m 2,4 km/h (1 Bft) W-SW 0,00 h 0,000 mm 0,0 UV-I 0 W/m -1,7 C 5,2 C 5,0 km/h (1 Bft) 0,00 %
12.12.2014 00:00 6,3 C 55 % 1015,5 hPa 0,0 l/m 4,9 km/h (1 Bft) W 0,00 h 0,000 mm 0,0 UV-I 0 W/m -2,2 C 5,9 C 7,9 km/h (2 Bft) 0,00 %
12.12.2014 01:00 6,9 C 53 % 1015,5 hPa 0,0 l/m 7,8 km/h (2 Bft) W-SW 0,00 h 0,000 mm 0,0 UV-I 0 W/m -2,2 C 5,6 C 11,9 km/h (2 Bft) 0,00 %
12.12.2014 02:00 6,6 C 55 % 1015,9 hPa 0,0 l/m 6,4 km/h (2 Bft) S-SW 0,00 h 0,000 mm 0,0 UV-I 0 W/m -1,9 C 5,1 C 10,9 km/h (2 Bft) 0,00 %
12.12.2014 03:00 6,1 C 58 % 1016,1 hPa 0,0 l/m 3,1 km/h (1 Bft) S-SW 0,00 h 0,000 mm 0,0 UV-I 0 W/m -1,6 C 6,1 C 5,9 km/h (2 Bft) 0,00 %
12.12.2014 04:00 5,2 C 62 % 1016,0 hPa 0,0 l/m 0,0 km/h (0 Bft) N 0,00 h 0,000 mm 0,0 UV-I 0 W/m -1,6 C 5,2 C 0,0 km/h (0 Bft) 0,00 %
12.12.2014 05:00 5,3 C 61 % 1015,7 hPa 0,0 l/m 0,0 km/h (0 Bft) N 0,00 h 0,000 mm 0,0 UV-I 0 W/m -1,6 C 5,3 C 0,0 km/h (0 Bft) 0,00 %
12.12.2014 06:00 5,0 C 61 % 1015,5 hPa 0,0 l/m 0,8 km/h (0 Bft) S-SW 0,00 h 0,000 mm 0,0 UV-I 0 W/m -2,0 C 5,0 C 3,0 km/h (1 Bft) 0,00 %
12.12.2014 07:00 4,0 C 63 % 1015,0 hPa 0,0 l/m 0,0 km/h (0 Bft) N 0,00 h 0,000 mm 0,0 UV-I 0 W/m -2,5 C 4,0 C 0,0 km/h (0 Bft) 0,00 %
12.12.2014 08:00 4,4 C 59 % 1014,6 hPa 0,0 l/m 0,0 km/h (0 Bft) N 0,00 h 0,000 mm 1,0 UV-I 30 W/m -2,9 C 4,4 C 0,0 km/h (0 Bft) 0,00 %
12.12.2014 09:00 7,5 C 49 % 1013,4 hPa 0,0 l/m 0,0 km/h (0 Bft) N 0,00 h 0,000 mm 1,0 UV-I 71 W/m -2,5 C 7,5 C 0,0 km/h (0 Bft) 0,00 %
12.12.2014 10:00 8,4 C 48 % 1012,2 hPa 0,0 l/m 0,8 km/h (0 Bft) O-NO 0,00 h 0,000 mm 1,0 UV-I 95 W/m -2,0 C 8,4 C 2,0 km/h (1 Bft) 0,00 %
12.12.2014 11:00 7,9 C 51 % 1010,8 hPa 0,0 l/m 2,0 km/h (1 Bft) NO 0,00 h 0,000 mm 1,0 UV-I 82 W/m -1,7 C 7,9 C 4,0 km/h (1 Bft) 0,00 %
12.12.2014 12:00 7,9 C 52 % 1009,4 hPa 0,0 l/m 2,0 km/h (1 Bft) O 0,00 h 0,000 mm 1,0 UV-I 69 W/m -1,3 C 7,9 C 4,9 km/h (1 Bft) 0,00 %
12.12.2014 13:00 7,8 C 53 % 1009,0 hPa 0,0 l/m 0,0 km/h (0 Bft) N 0,00 h 0,000 mm 1,0 UV-I 70 W/m -1,1 C 7,8 C 0,0 km/h (0 Bft) 0,00 %
12.12.2014 14:00 7,8 C 53 % 1008,3 hPa 0,0 l/m 0,0 km/h (0 Bft) N 0,00 h 0,000 mm 1,0 UV-I 74 W/m -1,2 C 7,8 C 0,0 km/h (0 Bft) 0,00 %
12.12.2014 15:00 6,8 C 57 % 1008,3 hPa 0,0 l/m 0,0 km/h (0 Bft) N 0,50 h 0,000 mm 0,0 UV-I 39 W/m -1,3 C 6,8 C 0,0 km/h (0 Bft) 0,00 %
12.12.2014 16:00 4,5 C 68 % 1008,8 hPa 0,0 l/m 0,0 km/h (0 Bft) N 0,00 h 0,000 mm 0,0 UV-I 0 W/m -1,0 C 4,5 C 0,0 km/h (0 Bft) 0,00 %
12.12.2014 17:00 3,6 C 67 % 1009,7 hPa 0,0 l/m 0,0 km/h (0 Bft) N 0,00 h 0,000 mm 0,0 UV-I 0 W/m -2,0 C 3,6 C 0,0 km/h (0 Bft) 0,00 %
12.12.2014 18:00 4,1 C 67 % 1009,7 hPa 0,0 l/m 0,0 km/h (0 Bft) N 0,00 h 0,000 mm 0,0 UV-I 0 W/m -1,4 C 4,1 C 0,0 km/h (0 Bft) 0,00 %
12.12.2014 19:00 3,9 C 71 % 1010,3 hPa 0,0 l/m 0,0 km/h (0 Bft) N 0,00 h 0,000 mm 0,0 UV-I 0 W/m -0,9 C 3,9 C 0,0 km/h (0 Bft) 0,00 %
12.12.2014 20:00 4,4 C 68 % 1010,0 hPa 0,0 l/m 0,0 km/h (0 Bft) N 0,00 h 0,000 mm 0,0 UV-I 0 W/m -1,0 C 4,4 C 0,0 km/h (0 Bft) 0,00 %
12.12.2014 21:00 4,2 C 71 % 1009,9 hPa 0,0 l/m 0,0 km/h (0 Bft) N 0,00 h 0,000 mm 0,0 UV-I 0 W/m -0,7 C 4,2 C 0,0 km/h (0 Bft) 0,00 %
12.12.2014 22:00 3,8 C 72 % 1009,6 hPa 0,0 l/m 0,0 km/h (0 Bft) N 0,00 h 0,000 mm 0,0 UV-I 0 W/m -0,8 C 3,8 C 0,0 km/h (0 Bft) 0,00 %
12.12.2014 23:00 3,8 C 72 % 1010,0 hPa 0,0 l/m 0,0 km/h (0 Bft) N 0,00 h 0,000 mm 0,0 UV-I 0 W/m -0,7 C 3,8 C 0,0 km/h (0 Bft) 0,00 %
13.12.2014 00:00 3,2 C 74 % 1009,9 hPa 0,0 l/m 1,1 km/h (0 Bft) O 0,00 h 0,000 mm 0,0 UV-I 0 W/m -0,9 C 3,2 C 2,0 km/h (1 Bft) 0,00 %
13.12.2014 01:00 1,8 C 74 % 1009,6 hPa 0,0 l/m 0,3 km/h (0 Bft) N 0,00 h 0,000 mm 0,0 UV-I 0 W/m -2,3 C 1,8 C 1,0 km/h (0 Bft) 0,00 %
13.12.2014 02:00 1,1 C 77 % 1010,1 hPa 0,0 l/m 0,0 km/h (0 Bft) N 0,00 h 0,000 mm 0,0 UV-I 0 W/m -2,5 C 1,1 C 0,0 km/h (0 Bft) 0,00 %
13.12.2014 03:00 1,0 C 77 % 1011,6 hPa 0,0 l/m 0,0 km/h (0 Bft) N 0,00 h 0,000 mm 0,0 UV-I 0 W/m -2,5 C 1,0 C 0,0 km/h (0 Bft) 0,00 %
13.12.2014 04:00 1,0 C 77 % 1012,0 hPa 0,0 l/m 0,0 km/h (0 Bft) N 0,00 h 0,000 mm 0,0 UV-I 0 W/m -2,5 C 1,0 C 0,0 km/h (0 Bft) 0,00 %
13.12.2014 05:00 1,0 C 75 % 1011,9 hPa 0,0 l/m 0,1 km/h (0 Bft) N 0,00 h 0,000 mm 0,0 UV-I 0 W/m -2,9 C 1,0 C 1,0 km/h (0 Bft) 0,00 %
13.12.2014 06:00 0,4 C 77 % 1012,7 hPa 0,0 l/m 0,7 km/h (0 Bft) SO 0,00 h 0,000 mm 0,0 UV-I 0 W/m -3,1 C 0,4 C 2,0 km/h (1 Bft) 0,00 %
13.12.2014 07:00 -0,0 C 80 % 1013,0 hPa 0,0 l/m 0,0 km/h (0 Bft) N 0,00 h 0,000 mm 0,0 UV-I 0 W/m -3,1 C -0,0 C 0,0 km/h (0 Bft) 0,00 %
13.12.2014 08:00 -0,2 C 80 % 1013,5 hPa 0,0 l/m 0,0 km/h (0 Bft) N 0,00 h 0,000 mm 1,0 UV-I 35 W/m -3,3 C -0,2 C 0,0 km/h (0 Bft) 0,00 %
13.12.2014 09:00 1,7 C 74 % 1013,4 hPa 0,0 l/m 0,0 km/h (0 Bft) N 0,00 h 0,000 mm 1,0 UV-I 78 W/m -2,4 C 1,7 C 0,0 km/h (0 Bft) 0,00 %
13.12.2014 10:00 3,6 C 72 % 1013,5 hPa 0,0 l/m 0,2 km/h (0 Bft) N 1,00 h 0,000 mm 1,0 UV-I 202 W/m -0,9 C 3,6 C 1,0 km/h (0 Bft) 0,00 %
13.12.2014 11:00 5,2 C 68 % 1013,0 hPa 0,0 l/m 0,0 km/h (0 Bft) N 1,00 h 0,000 mm 1,0 UV-I 211 W/m -0,3 C 5,2 C 0,0 km/h (0 Bft) 0,00 %
13.12.2014 12:00 6,4 C 64 % 1012,7 hPa 0,0 l/m 0,0 km/h (0 Bft) N 1,00 h 0,000 mm 1,0 UV-I 222 W/m 0,0 C 6,4 C 0,0 km/h (0 Bft) 0,00 %
13.12.2014 13:00 7,3 C 61 % 1012,7 hPa 0,0 l/m 0,0 km/h (0 Bft) N 0,50 h 0,000 mm 1,0 UV-I 147 W/m 0,2 C 7,3 C 0,0 km/h (0 Bft) 0,00 %
13.12.2014 14:00 7,1 C 62 % 1012,8 hPa 0,0 l/m 0,0 km/h (0 Bft) N 0,00 h 0,000 mm 1,0 UV-I 78 W/m 0,3 C 7,1 C 0,0 km/h (0 Bft) 0,00 %
13.12.2014 15:00 5,8 C 71 % 1013,2 hPa 0,0 l/m 0,0 km/h (0 Bft) N 0,00 h 0,000 mm 0,0 UV-I 23 W/m 0,8 C 5,8 C 0,0 km/h (0 Bft) 0,00 %
13.12.2014 16:00 4,4 C 75 % 1014,0 hPa 0,0 l/m 0,0 km/h (0 Bft) N 0,00 h 0,000 mm 0,0 UV-I 0 W/m 0,3 C 4,4 C 0,0 km/h (0 Bft) 0,00 %
13.12.2014 17:00 3,1 C 79 % 1014,7 hPa 0,0 l/m 0,0 km/h (0 Bft) N 0,00 h 0,000 mm 0,0 UV-I 0 W/m -0,2 C 3,1 C 0,0 km/h (0 Bft) 0,00 %
13.12.2014 18:00 2,3 C 78 % 1015,4 hPa 0,0 l/m 0,0 km/h (0 Bft) N 0,00 h 0,000 mm 0,0 UV-I 0 W/m -1,1 C 2,3 C 0,0 km/h (0 Bft) 0,00 %
13.12.2014 19:00 1,3 C 80 % 1015,9 hPa 0,0 l/m 0,0 km/h (0 Bft) N 0,00 h 0,000 mm 0,0 UV-I 0 W/m -1,9 C 1,3 C 0,0 km/h (0 Bft) 0,00 %
13.12.2014 20:00 0,9 C 81 % 1016,0 hPa 0,0 l/m 0,0 km/h (0 Bft) N 0,00 h 0,000 mm 0,0 UV-I 0 W/m -2,0 C 0,9 C 0,0 km/h (0 Bft) 0,00 %
13.12.2014 21:00 0,3 C 81 % 1016,3 hPa 0,0 l/m 0,0 km/h (0 Bft) N 0,00 h 0,000 mm 0,0 UV-I 0 W/m -2,5 C 0,3 C 0,0 km/h (0 Bft) 0,00 %
13.12.2014 22:00 0,3 C 82 % 1016,4 hPa 0,0 l/m 0,0 km/h (0 Bft) N 0,00 h 0,000 mm 0,0 UV-I 0 W/m -2,4 C 0,3 C 0,0 km/h (0 Bft) 0,00 %
13.12.2014 23:00 0,3 C 82 % 1016,3 hPa 0,0 l/m 0,0 km/h (0 Bft) N 0,00 h 0,000 mm 0,0 UV-I 0 W/m -2,5 C 0,3 C 0,0 km/h (0 Bft) 0,00 %
14.12.2014 00:00 0,4 C 82 % 1016,3 hPa 0,0 l/m 0,0 km/h (0 Bft) N 0,00 h 0,000 mm 0,0 UV-I 0 W/m -2,4 C 0,4 C 0,0 km/h (0 Bft) 0,00 %
14.12.2014 01:00 0,1 C 82 % 1016,3 hPa 0,0 l/m 0,0 km/h (0 Bft) N 0,00 h 0,000 mm 0,0 UV-I 0 W/m -2,6 C 0,1 C 0,0 km/h (0 Bft) 0,00 %
14.12.2014 02:00 0,0 C 82 % 1016,5 hPa 0,0 l/m 0,0 km/h (0 Bft) N 0,00 h 0,000 mm 0,0 UV-I 0 W/m -2,7 C 0,0 C 0,0 km/h (0 Bft) 0,00 %
14.12.2014 03:00 0,1 C 82 % 1016,9 hPa 0,0 l/m 0,0 km/h (0 Bft) N 0,00 h 0,000 mm 0,0 UV-I 0 W/m -2,6 C 0,1 C 0,0 km/h (0 Bft) 0,00 %
14.12.2014 04:00 0,4 C 82 % 1017,0 hPa 0,0 l/m 0,0 km/h (0 Bft) N 0,00 h 0,000 mm 0,0 UV-I 0 W/m -2,4 C 0,4 C 0,0 km/h (0 Bft) 0,00 %
14.12.2014 05:00 0,2 C 82 % 1017,2 hPa 0,0 l/m 0,0 km/h (0 Bft) N 0,00 h 0,000 mm 0,0 UV-I 0 W/m -2,5 C 0,2 C 0,0 km/h (0 Bft) 0,00 %
14.12.2014 06:00 0,3 C 82 % 1017,5 hPa 0,0 l/m 0,0 km/h (0 Bft) N 0,00 h 0,000 mm 0,0 UV-I 0 W/m -2,4 C 0,3 C 0,0 km/h (0 Bft) 0,00 %
14.12.2014 07:00 0,4 C 82 % 1017,9 hPa 0,0 l/m 0,0 km/h (0 Bft) N 0,00 h 0,000 mm 0,0 UV-I 0 W/m -2,3 C 0,4 C 0,0 km/h (0 Bft) 0,00 %
14.12.2014 08:00 0,4 C 82 % 1018,8 hPa 0,0 l/m 0,0 km/h (0 Bft) N 0,00 h 0,000 mm 0,0 UV-I 15 W/m -2,3 C 0,4 C 0,0 km/h (0 Bft) 0,00 %
14.12.2014 09:00 1,8 C 81 % 1018,8 hPa 0,0 l/m 0,0 km/h (0 Bft) N 0,00 h 0,000 mm 1,0 UV-I 65 W/m -1,0 C 1,8 C 0,0 km/h (0 Bft) 0,00 %
14.12.2014 10:00 3,3 C 80 % 1018,8 hPa 0,0 l/m 0,0 km/h (0 Bft) N 0,00 h 0,000 mm 1,0 UV-I 94 W/m 0,2 C 3,3 C 0,0 km/h (0 Bft) 0,00 %
14.12.2014 11:00 4,5 C 77 % 1018,2 hPa 0,0 l/m 0,0 km/h (0 Bft) N 0,00 h 0,000 mm 1,0 UV-I 86 W/m 0,8 C 4,5 C 0,0 km/h (0 Bft) 0,00 %
14.12.2014 12:00 6,6 C 69 % 1017,5 hPa 0,0 l/m 0,0 km/h (0 Bft) N 0,00 h 0,000 mm 1,0 UV-I 68 W/m 1,2 C 6,6 C 0,0 km/h (0 Bft) 0,00 %
14.12.2014 13:00 7,4 C 65 % 1016,8 hPa 0,0 l/m 1,1 km/h (0 Bft) O-NO 0,00 h 0,000 mm 1,0 UV-I 81 W/m 1,3 C 7,4 C 3,0 km/h (1 Bft) 0,00 %
14.12.2014 14:00 7,1 C 69 % 1016,9 hPa 0,0 l/m 0,5 km/h (0 Bft) O-SO 0,00 h 0,000 mm 1,0 UV-I 64 W/m 1,8 C 7,1 C 2,0 km/h (1 Bft) 0,00 %
14.12.2014 15:00 5,6 C 72 % 1017,4 hPa 0,0 l/m 0,9 km/h (0 Bft) O-SO 0,00 h 0,000 mm 0,0 UV-I 19 W/m 0,9 C 5,6 C 2,0 km/h (1 Bft) 0,00 %
14.12.2014 16:00 3,9 C 74 % 1018,1 hPa 0,0 l/m 0,0 km/h (0 Bft) N 0,00 h 0,000 mm 0,0 UV-I 0 W/m -0,2 C 3,9 C 0,0 km/h (0 Bft) 0,00 %
14.12.2014 17:00 3,1 C 76 % 1018,2 hPa 0,0 l/m 0,0 km/h (0 Bft) N 0,00 h 0,000 mm 0,0 UV-I 0 W/m -0,8 C 3,1 C 0,0 km/h (0 Bft) 0,00 %
14.12.2014 18:00 2,0 C 77 % 1018,4 hPa 0,0 l/m 0,0 km/h (0 Bft) N 0,00 h 0,000 mm 0,0 UV-I 0 W/m -1,6 C 2,0 C 0,0 km/h (0 Bft) 0,00 %
14.12.2014 19:00 1,3 C 79 % 1019,0 hPa 0,0 l/m 0,0 km/h (0 Bft) N 0,00 h 0,000 mm 0,0 UV-I 0 W/m -1,9 C 1,3 C 0,0 km/h (0 Bft) 0,00 %
14.12.2014 20:00 0,8 C 80 % 1018,8 hPa 0,0 l/m 0,0 km/h (0 Bft) N 0,00 h 0,000 mm 0,0 UV-I 0 W/m -2,3 C 0,8 C 0,0 km/h (0 Bft) 0,00 %
14.12.2014 21:00 0,8 C 81 % 1019,0 hPa 0,0 l/m 0,0 km/h (0 Bft) N 0,00 h 0,000 mm 0,0 UV-I 0 W/m -2,2 C 0,8 C 0,0 km/h (0 Bft) 0,00 %
14.12.2014 22:00 1,0 C 81 % 1019,1 hPa 0,0 l/m 0,0 km/h (0 Bft) N 0,00 h 0,000 mm 0,0 UV-I 0 W/m -1,9 C 1,0 C 0,0 km/h (0 Bft) 0,00 %
14.12.2014 23:00 1,1 C 81 % 1019,2 hPa 0,0 l/m 0,0 km/h (0 Bft) N 0,00 h 0,000 mm 0,0 UV-I 0 W/m -1,8 C 1,1 C 0,0 km/h (0 Bft) 0,00 %
Min-Datum _ 09.12.14 12.12.14 12.12.14 - 08.12.14 - - - - - 09.12.14 09.12.14 08.12.14 08.12.14
_ Min-Zeit 22:30 10:15 14:45 - 01:30 - - - - - 22:30 22:30 01:30 00:00
Minimum _ -2,6 C 45 % 1008,2 hPa - 0,0 km/h (0 Bft) - - - - - -5,7 C -2,6 C 0,0 km/h (0 Bft) 0,00 %
Max-Datum _ 12.12.14 11.12.14 09.12.14 08.12.14 12.12.14 - 10.12.14 08.12.14 10.12.14 10.12.14 14.12.14 12.12.14 11.12.14 08.12.14
_ Max-Zeit 09:45 09:00 23:00 08:15 02:00 - 10:00 00:00 10:45 12:30 14:00 09:45 21:15 00:00
Maximum _ 8,9 C 86 % 1032,5 hPa 0,6 l/m 13,3 km/h
S-SW (3 Bft)
- 0,25 h 0,000 mm 2,0 UV-I 267 W/m 1,9 C 8,9 C 19,8 km/h
NO (3 Bft)
0,00 %
Durchschnitt _ 2,4 C 74 % 1018,9 hPa #3,0 l/m 0,5 km/h (0 Bft) W-SW #9:45 h #0,000 mm 1,0 UV-I 83 W/m -1,8 C 2,4 C 1,2 km/h (1 Bft) 0,00 %